Home > Weather > Güstrow > Past weeks

Flag for Germany Weather for the Past 2 Weeks in Güstrow, Mecklenburg-Western Pomerania, Germany

Now
52 °F

Broken clouds.


Feels Like: 46 °F
Forecast: 42 / 57 °F
Wind: 20 mph from Northwest

Location: Laage

Current Time: May 3, 2016 at 4:55:04 PM

Latest Report: May 3, 2016 at 4:20 PM


Visibility: N/A

Pressure: 30.09 "Hg

Humidity: 72%

Dew Point: 43 °F

Location of GüstrowLocation

Historic Weather in Güstrow — Graph

°F

Güstrow Temperature Yesterday

Maximum temperature yesterday: 66 °F (at 4:20 PM)
Minimum temperature yesterday: 36 °F (at 5:50 AM)
Average temperature yesterday: 52 °F

High & Low Weather Summary for the Past Weeks

 TemperatureHumidityPressure
High66 °F (May 2, 4:20 PM)100% (Apr 21, 5:20 AM)30.36 "Hg (Apr 21, 5:20 AM)
Low32 °F (Apr 25, 3:20 AM)27% (Apr 23, 6:20 PM)29.42 "Hg (Apr 26, 3:20 AM)
Average45 °F73%29.94 "Hg
* Reported Apr 18 3:20 PM — May 3 3:20 PM, Güstrow, Weather by CustomWeather, © 2016

Note: Actual official high and low records may vary slightly from our data, if they occured in-between our weather recording intervals... More about our weather records

Advertising

Güstrow Weather History for the Previous 24 Hours

Scroll right to see more
 ConditionsComfort  
Time TempWeatherWind HumidityBarometerVisibility
3:20 PM
Tue, May 3
52 °FPartly sunny.20 mph77%30.07 "HgN/A
2:20 PM61 °FPartly sunny.23 mph63%30.04 "HgN/A
1:20 PM63 °FPartly sunny.13 mph52%30.01 "HgN/A
12:20 PM64 °FScattered clouds.9 mph46%30.01 "HgN/A
11:20 AM64 °FPassing clouds.9 mph46%30.01 "HgN/A
10:20 AM63 °FPassing clouds.10 mph49%30.01 "HgN/A
9:20 AM61 °FPassing clouds.8 mph55%30.01 "HgN/A
8:20 AM55 °FPassing clouds.5 mph63%30.04 "HgN/A
7:20 AM50 °FPassing clouds.2 mph71%30.04 "HgN/A
6:20 AM45 °FPassing clouds.2 mph81%30.04 "HgN/A
5:20 AM43 °FPassing clouds.3 mph81%30.04 "HgN/A
4:20 AM45 °FPassing clouds.3 mph76%30.04 "HgN/A
3:20 AM45 °FPassing clouds.5 mph76%30.07 "HgN/A
2:20 AM46 °FCool.6 mph71%30.09 "HgN/A
1:20 AM45 °FQuite cool.7 mph76%30.09 "HgN/A
12:20 AM46 °FPassing clouds.8 mph71%30.12 "HgN/A
11:20 PM
Mon, May 2
50 °FPassing clouds.8 mph62%30.12 "HgN/A
10:20 PM54 °FPassing clouds.8 mph54%30.12 "HgN/A
9:20 PM55 °FPassing clouds.10 mph51%30.12 "HgN/A
8:20 PM59 °FScattered clouds.10 mph51%30.12 "HgN/A
7:55 PM61 °FPassing clouds.9 mph45%30.12 "HgN/A
7:20 PM63 °FPassing clouds.10 mph45%30.12 "HgN/A
5:20 PM66 °FPassing clouds.10 mph40%30.18 "HgN/A
4:20 PM66 °FPassing clouds.7 mph43%30.18 "HgN/A
Weather by CustomWeather, © 2016

See weather overviewHow to use our weather pages